,,Stat6,,Stat2,,Stat8,,Stat9,,Stat10,,Wind1,,Wind1,
time,status,PA1M_AVG,status,PR1M_SUM,status,RH1M_AVG,status,SR1M_AVG,status,TA1M_AVG,status,W1dAve1m,status,W1sAve1m,
2009-06-03, 00:00:00,VALID,918.547,VALID,0,VALID,100,VALID,-0.0339617,VALID,20.8464,VALID,37,VALID,0,
2009-06-03, 00:01:00,VALID,918.572,VALID,0,VALID,100,VALID,-0.0509425,VALID,20.8107,VALID,34,VALID,0,
2009-06-03, 00:02:00,VALID,918.603,VALID,0,VALID,100,VALID,-0.0849042,VALID,20.7983,VALID,34,VALID,0,
2009-06-03, 00:03:00,VALID,918.631,VALID,0,VALID,100,VALID,-0.101885,VALID,20.775,VALID,34,VALID,0,
2009-06-03, 00:04:00,VALID,918.671,VALID,0,VALID,100,VALID,-0.101885,VALID,20.7945,VALID,34,VALID,0,
2009-06-03, 00:05:00,VALID,918.709,VALID,0,VALID,100,VALID,-0.0509425,VALID,20.8077,VALID,303,VALID,0,
2009-06-03, 00:06:00,VALID,918.731,VALID,0,VALID,100,VALID,-0.0339617,VALID,20.7912,VALID,268,VALID,0,
2009-06-03, 00:07:00,VALID,918.745,VALID,0,VALID,100,VALID,-0.0509425,VALID,20.8075,VALID,268,VALID,0,
2009-06-03, 00:08:00,VALID,918.713,VALID,0,VALID,100,VALID,-0.0339617,VALID,20.8237,VALID,341,VALID,0,
2009-06-03, 00:09:00,VALID,918.702,VALID,0,VALID,100,VALID,-0.0339617,VALID,20.8402,VALID,22,VALID,0,
2009-06-03, 00:10:00,VALID,918.685,VALID,0,VALID,100,VALID,-0.0339617,VALID,20.8297,VALID,20,VALID,0,
2009-06-03, 00:11:00,VALID,918.655,VALID,0,VALID,100,VALID,-0.0169808,VALID,20.8269,VALID,7,VALID,0,
2009-06-03, 00:12:00,VALID,918.639,VALID,0,VALID,100,VALID,-0.0339617,VALID,20.8237,VALID,21,VALID,0,
2009-06-03, 00:13:00,VALID,918.622,VALID,0,VALID,100,VALID,-0.0509425,VALID,20.8204,VALID,24,VALID,0.00121528,
2009-06-03, 00:14:00,VALID,918.621,VALID,0,VALID,100,VALID,-0.0509425,VALID,20.824,VALID,17,VALID,0.0412946,
2009-06-03, 00:15:00,VALID,918.633,VALID,0,VALID,100,VALID,-0.0339617,VALID,20.8432,VALID,17,VALID,0.0025436,
2009-06-03, 00:16:00,VALID,918.639,VALID,0,VALID,100,VALID,-0.0679233,VALID,20.8789,VALID,17,VALID,0,
2009-06-03, 00:17:00,VALID,918.628,VALID,0,VALID,100,VALID,-0.0169808,VALID,20.9208,VALID,13,VALID,0.000363372,
2009-06-03, 00:18:00,VALID,918.627,VALID,0,VALID,100,VALID,-0.0849042,VALID,20.9503,VALID,16,VALID,0.00353423,
2009-06-03, 00:19:00,VALID,918.607,VALID,0,VALID,100,VALID,-0.0679233,VALID,20.9563,VALID,19,VALID,0,
2009-06-03, 00:20:00,VALID,918.605,VALID,0,VALID,100,VALID,-0.0509425,VALID,20.9633,VALID,10,VALID,0.000545058,
2009-06-03, 00:21:00,VALID,918.617,VALID,0,VALID,100,VALID,-0.0679233,VALID,20.9633,VALID,7,VALID,0.000976563,
2009-06-03, 00:22:00,VALID,918.598,VALID,0,VALID,100,VALID,-0.0849042,VALID,20.97,VALID,15,VALID,0.0621528,
2009-06-03, 00:23:00,VALID,918.586,VALID,0,VALID,100,VALID,-0.0339617,VALID,20.9725,VALID,18,VALID,0.00887784,
2009-06-03, 00:24:00,VALID,918.577,VALID,0,VALID,100,VALID,-0.0339617,VALID,20.9825,VALID,17,VALID,0,
2009-06-03, 00:25:00,VALID,918.568,VALID,0,VALID,100,VALID,-0.0509425,VALID,20.9795,VALID,18,VALID,0,
2009-06-03, 00:26:00,VALID,918.537,VALID,0,VALID,100,VALID,-0.0339617,VALID,20.9792,VALID,14,VALID,0,
2009-06-03, 00:27:00,VALID,918.518,VALID,0,VALID,100,VALID,-0.0679233,VALID,20.9857,VALID,18,VALID,0,
2009-06-03, 00:28:00,VALID,918.499,VALID,0,VALID,100,VALID,-0.0509425,VALID,20.9952,VALID,21,VALID,0,
2009-06-03, 00:29:00,VALID,918.454,VALID,0,VALID,100,VALID,-0.0509425,VALID,21.0052,VALID,21,VALID,0,
2009-06-03, 00:30:00,VALID,918.42,VALID,0,VALID,100,VALID,-0.0849042,VALID,21.009,VALID,21,VALID,0,
2009-06-03, 00:31:00,VALID,918.394,VALID,0,VALID,100,VALID,-0.0509425,VALID,20.999,VALID,21,VALID,0,
2009-06-03, 00:32:00,VALID,918.373,VALID,0,VALID,100,VALID,-0.0509425,VALID,20.9952,VALID,23,VALID,0,
2009-06-03, 00:33:00,VALID,918.366,VALID,0,VALID,100,VALID,0,VALID,21.0022,VALID,20,VALID,0,
2009-06-03, 00:34:00,VALID,918.376,VALID,0,VALID,100,VALID,-0.0169808,VALID,21.0082,VALID,17,VALID,0,
2009-06-03, 00:35:00,VALID,918.383,VALID,0,VALID,100,VALID,-0.0849042,VALID,21.002,VALID,23,VALID,0.0886628,
2009-06-03, 00:36:00,VALID,918.399,VALID,0,VALID,100,VALID,-0.0509425,VALID,20.9887,VALID,26,VALID,0.0492932,
2009-06-03, 00:37:00,VALID,918.41,VALID,0,VALID,100,VALID,-0.0339617,VALID,20.9987,VALID,21,VALID,0.230655,
2009-06-03, 00:38:00,VALID,918.409,VALID,0,VALID,100,VALID,-0.0509425,VALID,20.9922,VALID,24,VALID,0.0589844,
2009-06-03, 00:39:00,VALID,918.382,VALID,0,VALID,100,VALID,-0.0679233,VALID,20.9922,VALID,16,VALID,0.0788517,
2009-06-03, 00:40:00,VALID,918.368,VALID,0,VALID,100,VALID,-0.0509425,VALID,21.0052,VALID,28,VALID,0.0622889,
2009-06-03, 00:41:00,VALID,918.354,VALID,0,VALID,100,VALID,-0.0849042,VALID,21.0217,VALID,352,VALID,0,
2009-06-03, 00:42:00,VALID,918.333,VALID,0,VALID,100,VALID,-0.0509425,VALID,21.0314,VALID,303,VALID,0,
2009-06-03, 00:43:00,VALID,918.293,VALID,0,VALID,100,VALID,-0.0339617,VALID,21.0377,INVALID,360,VALID,0,
2009-06-03, 00:44:00,VALID,918.245,VALID,0,VALID,100,VALID,-0.0679233,VALID,21.0379,VALID,284,VALID,0,
2009-06-03, 00:45:00,VALID,918.208,VALID,0,VALID,100,VALID,-0.0849042,VALID,21.0544,VALID,280,VALID,0,
2009-06-03, 00:46:00,VALID,918.168,VALID,0,VALID,100,VALID,-0.0679233,VALID,21.0772,VALID,10,VALID,0,
2009-06-03, 00:47:00,VALID,918.154,VALID,0,VALID,100,VALID,-0.0849042,VALID,21.0964,VALID,14,VALID,0,
2009-06-03, 00:48:00,VALID,918.133,VALID,0,VALID,100,VALID,-0.0849042,VALID,21.1031,VALID,22,VALID,0,
2009-06-03, 00:49:00,VALID,918.134,VALID,0,VALID,100,VALID,-0.101885,VALID,21.1031,VALID,28,VALID,0.00436047,
2009-06-03, 00:50:00,VALID,918.148,VALID,0,VALID,100,VALID,-0.0679233,VALID,21.1061,VALID,26,VALID,0,
2009-06-03, 00:51:00,VALID,918.148,VALID,0,VALID,100,VALID,-0.101885,VALID,21.1131,VALID,21,VALID,0,
2009-06-03, 00:52:00,VALID,918.142,VALID,0,VALID,100,VALID,-0.0849042,VALID,21.1096,VALID,8,VALID,0.00725446,
2009-06-03, 00:53:00,VALID,918.119,VALID,0,VALID,100,VALID,-0.0849042,VALID,21.0931,VALID,13,VALID,0.00334821,
2009-06-03, 00:54:00,VALID,918.086,VALID,0,VALID,100,VALID,-0.0849042,VALID,21.0804,VALID,21,VALID,0,
2009-06-03, 00:55:00,VALID,918.049,VALID,0,VALID,100,VALID,-0.0849042,VALID,21.0807,VALID,29,VALID,0.00133384,
2009-06-03, 00:56:00,VALID,918.008,VALID,0,VALID,100,VALID,-0.0679233,VALID,21.0704,VALID,26,VALID,0.0651042,
2009-06-03, 00:57:00,VALID,917.976,VALID,0,VALID,100,VALID,-0.0679233,VALID,21.0639,VALID,27,VALID,0.347834,
2009-06-03, 00:58:00,VALID,917.932,VALID,0,VALID,100,VALID,-0.0509425,VALID,21.0639,VALID,37,VALID,0.127858,
2009-06-03, 00:59:00,VALID,917.903,VALID,0,VALID,100,VALID,-0.0679233,VALID,21.0574,VALID,40,VALID,0.0505319,
2009-06-03, 01:00:00,VALID,917.868,VALID,0,VALID,100,VALID,-0.0679233,VALID,21.0474,VALID,33,VALID,0.0350654,
2009-06-03, 01:01:00,VALID,917.882,VALID,0,VALID,100,VALID,-0.0679233,VALID,21.0442,VALID,34,VALID,0.0441497,
2009-06-03, 01:02:00,VALID,917.902,VALID,0,VALID,100,VALID,-0.0849042,VALID,21.0544,VALID,32,VALID,0,
2009-06-03, 01:03:00,VALID,917.914,VALID,0,VALID,100,VALID,-0.0339617,VALID,21.0509,VALID,34,VALID,0.00703125,
2009-06-03, 01:04:00,VALID,917.932,VALID,0,VALID,100,VALID,-0.0509425,VALID,21.0639,VALID,21,VALID,0,
2009-06-03, 01:05:00,VALID,917.953,VALID,0,VALID,100,VALID,-0.0339617,VALID,21.0671,VALID,4,VALID,0.00839844,
2009-06-03, 01:06:00,VALID,917.943,VALID,0,VALID,100,VALID,-0.0509425,VALID,21.0801,VALID,32,VALID,0.040483,
2009-06-03, 01:07:00,VALID,917.933,VALID,0,VALID,100,VALID,-0.0509425,VALID,21.0836,VALID,42,VALID,0.00223214,
2009-06-03, 01:08:00,VALID,917.908,VALID,0,VALID,100,VALID,-0.0679233,VALID,21.0934,VALID,21,VALID,0,
2009-06-03, 01:09:00,VALID,917.881,VALID,0,VALID,100,VALID,-0.0339617,VALID,21.1029,VALID,28,VALID,0,
2009-06-03, 01:10:00,VALID,917.842,VALID,0,VALID,100,VALID,-0.0509425,VALID,21.0931,VALID,27,VALID,0.102214,
2009-06-03, 01:11:00,VALID,917.835,VALID,0,VALID,100,VALID,-0.0849042,VALID,21.0866,VALID,28,VALID,0.0381324,
2009-06-03, 01:12:00,VALID,917.828,VALID,0,VALID,100,VALID,-0.0679233,VALID,21.0869,VALID,31,VALID,0.0225694,
2009-06-03, 01:13:00,VALID,917.821,VALID,0,VALID,100,VALID,-0.0679233,VALID,21.0704,VALID,33,VALID,0.17242,
2009-06-03, 01:14:00,VALID,917.806,VALID,0,VALID,100,VALID,-0.0679233,VALID,21.0772,VALID,34,VALID,0,
2009-06-03, 01:15:00,VALID,917.783,VALID,0,VALID,100,VALID,-0.0679233,VALID,21.0769,VALID,68,VALID,0.0369141,
2009-06-03, 01:16:00,VALID,917.755,VALID,0,VALID,100,VALID,-0.0169808,VALID,21.0831,VALID,67,VALID,0.0150799,
2009-06-03, 01:17:00,VALID,917.739,VALID,0,VALID,100,VALID,-0.0509425,VALID,21.0961,VALID,24,VALID,0,
2009-06-03, 01:18:00,VALID,917.71,VALID,0,VALID,100,VALID,-0.0509425,VALID,21.0899,VALID,14,VALID,0,
2009-06-03, 01:19:00,VALID,917.679,VALID,0,VALID,100,VALID,-0.0509425,VALID,21.1064,VALID,14,VALID,0,
2009-06-03, 01:20:00,VALID,917.662,VALID,0,VALID,100,VALID,-0.0679233,VALID,21.0899,VALID,14,VALID,0,
2009-06-03, 01:21:00,VALID,917.646,VALID,0,VALID,100,VALID,-0.0339617,VALID,21.0991,VALID,14,VALID,0,
2009-06-03, 01:22:00,VALID,917.626,VALID,0,VALID,100,VALID,-0.0169808,VALID,21.1126,VALID,14,VALID,0,
2009-06-03, 01:23:00,VALID,917.617,VALID,0,VALID,100,VALID,-0.0169808,VALID,21.0993,VALID,271,VALID,0,
2009-06-03, 01:24:00,VALID,917.602,VALID,0,VALID,100,VALID,-0.0339617,VALID,21.0928,VALID,224,VALID,0,
2009-06-03, 01:25:00,VALID,917.589,VALID,0,VALID,100,VALID,-0.0679233,VALID,21.0866,VALID,224,VALID,0,
2009-06-03, 01:26:00,VALID,917.554,VALID,0,VALID,100,VALID,-0.0509425,VALID,21.0966,VALID,205,VALID,0,
2009-06-03, 01:27:00,VALID,917.512,VALID,0,VALID,100,VALID,-0.0339617,VALID,21.0866,VALID,197,VALID,0,
2009-06-03, 01:28:00,VALID,917.476,VALID,0,VALID,100,VALID,-0.0509425,VALID,21.0964,VALID,339,VALID,0.0565476,
2009-06-03, 01:29:00,VALID,917.454,VALID,0,VALID,100,VALID,-0.0679233,VALID,21.1093,VALID,42,VALID,0.000744048,
2009-06-03, 01:30:00,VALID,917.41,VALID,0,VALID,100,VALID,-0.0509425,VALID,21.1029,VALID,69,VALID,0.00236192,
2009-06-03, 01:31:00,VALID,917.393,VALID,0,VALID,100,VALID,-0.0849042,VALID,21.0772,VALID,28,VALID,0.0109012,
2009-06-03, 01:32:00,VALID,917.386,VALID,0,VALID,100,VALID,-0.101885,VALID,21.0769,VALID,29,VALID,0.00914634,
2009-06-03, 01:33:00,VALID,917.37,VALID,0,VALID,100,VALID,-0.0169808,VALID,21.0769,VALID,20,VALID,0.0305398,
2009-06-03, 01:34:00,VALID,917.366,VALID,0,VALID,100,VALID,-0.0679233,VALID,21.0772,VALID,35,VALID,0,
2009-06-03, 01:35:00,VALID,917.346,VALID,0,VALID,100,VALID,-0.101885,VALID,21.0674,VALID,14,VALID,0,
2009-06-03, 01:36:00,VALID,917.318,VALID,0,VALID,100,VALID,-0.0509425,VALID,21.0671,VALID,7,VALID,0,
2009-06-03, 01:37:00,VALID,917.302,VALID,0,VALID,100,VALID,-0.0679233,VALID,21.0839,VALID,25,VALID,0,
2009-06-03, 01:38:00,VALID,917.255,VALID,0,VALID,100,VALID,-0.0679233,VALID,21.0639,VALID,30,VALID,0,
2009-06-03, 01:39:00,VALID,917.248,VALID,0,VALID,100,VALID,-0.0679233,VALID,21.0639,VALID,29,VALID,0,
2009-06-03, 01:40:00,VALID,917.215,VALID,0,VALID,100,VALID,-0.0169808,VALID,21.0471,VALID,35,VALID,0,
2009-06-03, 01:41:00,VALID,917.215,VALID,0,VALID,100,VALID,-0.0169808,VALID,21.0409,VALID,38,VALID,0,
2009-06-03, 01:42:00,VALID,917.194,VALID,0,VALID,100,VALID,-0.0339617,VALID,21.0471,VALID,38,VALID,0,
2009-06-03, 01:43:00,VALID,917.174,VALID,0,VALID,100,VALID,-0.101885,VALID,21.0379,VALID,27,VALID,0,
2009-06-03, 01:44:00,VALID,917.17,VALID,0,VALID,100,VALID,-0.0339617,VALID,21.0185,VALID,27,VALID,0,
2009-06-03, 01:45:00,VALID,917.164,VALID,0,VALID,100,VALID,-0.0509425,VALID,21.0087,VALID,38,VALID,0,
2009-06-03, 01:46:00,VALID,917.142,VALID,0,VALID,100,VALID,-0.0169808,VALID,20.9598,VALID,60,VALID,0.0372024,
2009-06-03, 01:47:00,VALID,917.137,VALID,0,VALID,100,VALID,-0.0509425,VALID,20.957,VALID,35,VALID,0,
2009-06-03, 01:48:00,VALID,917.132,VALID,0,VALID,100,VALID,-0.0169808,VALID,20.95,VALID,21,VALID,0,
2009-06-03, 01:49:00,VALID,917.14,VALID,0,VALID,100,VALID,-0.0679233,VALID,20.9598,VALID,10,VALID,0,
2009-06-03, 01:50:00,VALID,917.157,VALID,0,VALID,100,VALID,-0.0509425,VALID,20.95,VALID,347,VALID,0,
2009-06-03, 01:51:00,VALID,917.158,VALID,0,VALID,100,VALID,-0.0339617,VALID,20.947,VALID,26,VALID,0,
2009-06-03, 01:52:00,VALID,917.175,VALID,0,VALID,100,VALID,-0.0339617,VALID,20.9241,VALID,47,VALID,0,
2009-06-03, 01:53:00,VALID,917.189,VALID,0,VALID,100,VALID,-0.0339617,VALID,20.9308,VALID,39,VALID,0,
2009-06-03, 01:54:00,VALID,917.176,VALID,0,VALID,100,VALID,-0.0169808,VALID,20.96,VALID,39,VALID,0,
2009-06-03, 01:55:00,VALID,917.166,VALID,0,VALID,100,VALID,-0.0679233,VALID,20.9771,VALID,38,VALID,0,
2009-06-03, 01:56:00,VALID,917.151,VALID,0,VALID,100,VALID,-0.0509425,VALID,20.9665,VALID,36,VALID,0,
2009-06-03, 01:57:00,VALID,917.145,VALID,0,VALID,100,VALID,-0.0339617,VALID,20.9665,VALID,36,VALID,0,
2009-06-03, 01:58:00,VALID,917.138,VALID,0,VALID,100,VALID,-0.0679233,VALID,20.9603,VALID,349,VALID,0,
2009-06-03, 01:59:00,VALID,917.118,VALID,0,VALID,100,VALID,-0.0509425,VALID,20.9408,VALID,275,VALID,0,
2009-06-03, 02:00:00,VALID,917.1,VALID,0,VALID,100,VALID,-0.0509425,VALID,20.9243,VALID,253,VALID,0,
2009-06-03, 02:01:00,VALID,917.088,VALID,0,VALID,100,VALID,-0.0169808,VALID,20.9046,VALID,235,VALID,0,
2009-06-03, 02:02:00,VALID,917.096,VALID,0,VALID,100,VALID,-0.0339617,VALID,20.8851,VALID,230,VALID,0,
2009-06-03, 02:03:00,VALID,917.102,VALID,0,VALID,100,VALID,-0.0339617,VALID,20.8916,VALID,230,VALID,0,
2009-06-03, 02:04:00,VALID,917.106,VALID,0,VALID,100,VALID,-0.0509425,VALID,20.8984,VALID,230,VALID,0,
2009-06-03, 02:05:00,VALID,917.115,VALID,0,VALID,100,VALID,0,VALID,20.9048,VALID,276,VALID,0.050327,
2009-06-03, 02:06:00,VALID,917.113,VALID,0,VALID,100,VALID,-0.0679233,VALID,20.9148,VALID,33,VALID,0.0275213,
2009-06-03, 02:07:00,VALID,917.109,VALID,0,VALID,100,VALID,-0.0509425,VALID,20.9178,VALID,23,VALID,0,
2009-06-03, 02:08:00,VALID,917.097,VALID,0,VALID,100,VALID,-0.0169808,VALID,20.9243,VALID,28,VALID,0.000952744,
2009-06-03, 02:09:00,VALID,917.108,VALID,0,VALID,100,VALID,-0.0339617,VALID,20.9405,VALID,21,VALID,0,
2009-06-03, 02:10:00,VALID,917.111,VALID,0,VALID,100,VALID,-0.0509425,VALID,20.9403,VALID,26,VALID,0,
2009-06-03, 02:11:00,VALID,917.125,VALID,0,VALID,100,VALID,-0.0509425,VALID,20.9305,VALID,37,VALID,0,
2009-06-03, 02:12:00,VALID,917.152,VALID,0,VALID,100,VALID,-0.0169808,VALID,20.9211,VALID,32,VALID,0,
2009-06-03, 02:13:00,VALID,917.175,VALID,0,VALID,100,VALID,0,VALID,20.9243,VALID,14,VALID,0,
2009-06-03, 02:14:00,VALID,917.194,VALID,0,VALID,100,VALID,-0.0169808,VALID,20.8946,VALID,12,VALID,0,
2009-06-03, 02:15:00,VALID,917.207,VALID,0,VALID,100,VALID,-0.0169808,VALID,20.8821,VALID,30,VALID,0,
2009-06-03, 02:16:00,VALID,917.199,VALID,0,VALID,100,VALID,0,VALID,20.8789,VALID,30,VALID,0,
2009-06-03, 02:17:00,VALID,917.199,VALID,0,VALID,100,VALID,-0.0509425,VALID,20.8691,VALID,12,VALID,0,
2009-06-03, 02:18:00,VALID,917.193,VALID,0,VALID,100,VALID,-0.0509425,VALID,20.8724,VALID,11,VALID,0,
2009-06-03, 02:19:00,VALID,917.188,VALID,0,VALID,100,VALID,-0.0169808,VALID,20.8721,VALID,16,VALID,0.0580357,
2009-06-03, 02:20:00,VALID,917.177,VALID,0,VALID,100,VALID,-0.0509425,VALID,20.8659,VALID,12,VALID,0.00555099,
2009-06-03, 02:21:00,VALID,917.18,VALID,0,VALID,100,VALID,-0.0509425,VALID,20.8756,VALID,28,VALID,0,
2009-06-03, 02:22:00,VALID,917.187,VALID,0,VALID,100,VALID,-0.0339617,VALID,20.8591,VALID,19,VALID,0,
2009-06-03, 02:23:00,VALID,917.191,VALID,0,VALID,100,VALID,-0.0339617,VALID,20.8691,VALID,12,VALID,0,
2009-06-03, 02:24:00,VALID,917.188,VALID,0,VALID,100,VALID,-0.0169808,VALID,20.8597,VALID,21,VALID,0,
2009-06-03, 02:25:00,VALID,917.184,VALID,0,VALID,100,VALID,0,VALID,20.8526,VALID,34,VALID,0,
2009-06-03, 02:26:00,VALID,917.175,VALID,0,VALID,100,VALID,-0.0339617,VALID,20.8559,VALID,35,VALID,0,
2009-06-03, 02:27:00,VALID,917.179,VALID,0,VALID,100,VALID,-0.0169808,VALID,20.8821,VALID,35,VALID,0,
2009-06-03, 02:28:00,VALID,917.192,VALID,0,VALID,100,VALID,-0.0169808,VALID,20.8913,VALID,35,VALID,0,
2009-06-03, 02:29:00,VALID,917.208,VALID,0,VALID,100,VALID,0,VALID,20.9113,VALID,35,VALID,0,
2009-06-03, 02:30:00,VALID,917.226,VALID,0,VALID,100,VALID,-0.0509425,VALID,20.9178,VALID,35,VALID,0,
2009-06-03, 02:31:00,VALID,917.236,VALID,0,VALID,100,VALID,-0.0169808,VALID,20.9113,VALID,34,VALID,0,
2009-06-03, 02:32:00,VALID,917.241,VALID,0,VALID,100,VALID,-0.0339617,VALID,20.9048,VALID,15,VALID,0,
2009-06-03, 02:33:00,VALID,917.237,VALID,0,VALID,100,VALID,-0.0339617,VALID,20.8951,VALID,14,VALID,0,
2009-06-03, 02:34:00,VALID,917.232,VALID,0,VALID,100,VALID,-0.0339617,VALID,20.8883,VALID,20,VALID,0,
2009-06-03, 02:35:00,VALID,917.227,VALID,0,VALID,100,VALID,-0.0169808,VALID,20.8716,VALID,24,VALID,0,
2009-06-03, 02:36:00,VALID,917.224,VALID,0,VALID,100,VALID,-0.0169808,VALID,20.8494,VALID,23,VALID,0,
2009-06-03, 02:37:00,VALID,917.212,VALID,0,VALID,100,VALID,-0.0169808,VALID,20.8394,VALID,17,VALID,0,
2009-06-03, 02:38:00,VALID,917.199,VALID,0,VALID,100,VALID,-0.0169808,VALID,20.8197,VALID,17,VALID,0,
2009-06-03, 02:39:00,VALID,917.186,VALID,0,VALID,100,VALID,0,VALID,20.8167,VALID,17,VALID,0,
2009-06-03, 02:40:00,VALID,917.176,VALID,0,VALID,100,VALID,-0.0339617,VALID,20.8137,VALID,17,VALID,0,
2009-06-03, 02:41:00,VALID,917.17,VALID,0,VALID,100,VALID,-0.0169808,VALID,20.8232,VALID,17,VALID,0,
2009-06-03, 02:42:00,VALID,917.134,VALID,0,VALID,100,VALID,-0.0169808,VALID,20.8394,VALID,17,VALID,0,
2009-06-03, 02:43:00,VALID,917.111,VALID,0,VALID,100,VALID,0,VALID,20.8399,VALID,19,VALID,0,
2009-06-03, 02:44:00,VALID,917.079,VALID,0,VALID,100,VALID,-0.0169808,VALID,20.8424,VALID,23,VALID,0,
2009-06-03, 02:45:00,VALID,917.059,VALID,0,VALID,100,VALID,0,VALID,20.8294,VALID,25,VALID,0.0799419,
2009-06-03, 02:46:00,VALID,917.01,VALID,0,VALID,100,VALID,-0.0169808,VALID,20.8167,VALID,30,VALID,0.654492,
2009-06-03, 02:47:00,VALID,916.967,VALID,0,VALID,100,VALID,-0.0169808,VALID,20.7972,VALID,24,VALID,0.541481,
2009-06-03, 02:48:00,VALID,916.933,VALID,0,VALID,100,VALID,-0.0509425,VALID,20.7845,VALID,28,VALID,0.980114,
2009-06-03, 02:49:00,VALID,916.93,VALID,0,VALID,100,VALID,-0.0509425,VALID,20.7715,VALID,33,VALID,0.604167,
2009-06-03, 02:50:00,VALID,916.932,VALID,0,VALID,100,VALID,-0.0169808,VALID,20.7555,VALID,32,VALID,0.450945,
2009-06-03, 02:51:00,VALID,916.938,VALID,0,VALID,100,VALID,-0.0339617,VALID,20.742,VALID,30,VALID,0.228609,
2009-06-03, 02:52:00,VALID,916.958,VALID,0,VALID,100,VALID,-0.0339617,VALID,20.7523,VALID,14,VALID,0.00558036,
2009-06-03, 02:53:00,VALID,916.953,VALID,0,VALID,100,VALID,-0.0339617,VALID,20.7455,VALID,9,VALID,0.00360577,
2009-06-03, 02:54:00,VALID,916.957,VALID,0,VALID,100,VALID,-0.0679233,VALID,20.7333,VALID,8,VALID,0.325068,
2009-06-03, 02:55:00,VALID,916.961,VALID,0,VALID,100,VALID,-0.118866,VALID,20.7274,VALID,6,VALID,0.313802,
2009-06-03, 02:56:00,VALID,916.968,VALID,0,VALID,100,VALID,-0.0849042,VALID,20.7271,VALID,5,VALID,0.0161345,
2009-06-03, 02:57:00,VALID,916.951,VALID,0,VALID,100,VALID,-0.101885,VALID,20.7304,VALID,355,VALID,0.191602,
2009-06-03, 02:58:00,VALID,916.928,VALID,0,VALID,100,VALID,-0.101885,VALID,20.7211,VALID,16,VALID,0.157924,
2009-06-03, 02:59:00,VALID,916.916,VALID,0,VALID,100,VALID,-0.118866,VALID,20.7144,VALID,17,VALID,0.0495477,
2009-06-03, 03:00:00,VALID,916.897,VALID,0,VALID,100,VALID,-0.0849042,VALID,20.7009,VALID,14,VALID,0,
2009-06-03, 03:01:00,VALID,916.879,VALID,0,VALID,100,VALID,-0.101885,VALID,20.7146,VALID,357,VALID,0,
2009-06-03, 03:02:00,VALID,916.874,VALID,0,VALID,100,VALID,-0.101885,VALID,20.7114,VALID,351,VALID,0,
2009-06-03, 03:03:00,VALID,916.851,VALID,0,VALID,100,VALID,-0.118866,VALID,20.7111,VALID,17,VALID,0,
2009-06-03, 03:04:00,VALID,916.817,VALID,0,VALID,100,VALID,-0.0849042,VALID,20.7244,VALID,15,VALID,0,
2009-06-03, 03:05:00,VALID,916.789,VALID,0,VALID,100,VALID,-0.0849042,VALID,20.7171,VALID,18,VALID,0,
2009-06-03, 03:06:00,VALID,916.784,VALID,0,VALID,100,VALID,-0.101885,VALID,20.7276,VALID,19,VALID,0,
2009-06-03, 03:07:00,VALID,916.763,VALID,0,VALID,100,VALID,-0.0509425,VALID,20.7233,VALID,11,VALID,0,
2009-06-03, 03:08:00,VALID,916.74,VALID,0,VALID,100,VALID,-0.101885,VALID,20.7406,VALID,22,VALID,0,
2009-06-03, 03:09:00,VALID,916.729,VALID,0,VALID,100,VALID,-0.0169808,VALID,20.7228,VALID,42,VALID,0,
2009-06-03, 03:10:00,VALID,916.717,VALID,0,VALID,100,VALID,0.0339617,VALID,20.725,VALID,38,VALID,0,
2009-06-03, 03:11:00,VALID,916.703,VALID,0,VALID,100,VALID,0,VALID,20.7383,VALID,10,VALID,0.0012429,
2009-06-03, 03:12:00,VALID,916.681,VALID,0,VALID,100,VALID,0,VALID,20.7455,VALID,30,VALID,0,
2009-06-03, 03:13:00,VALID,916.664,VALID,0,VALID,100,VALID,0,VALID,20.7225,VALID,19,VALID,0.00111607,
2009-06-03, 03:14:00,VALID,916.643,VALID,0,VALID,100,VALID,0.0339617,VALID,20.7093,VALID,30,VALID,0,
2009-06-03, 03:15:00,VALID,916.627,VALID,0,VALID,100,VALID,0,VALID,20.6863,VALID,21,VALID,0.00136719,
2009-06-03, 03:16:00,VALID,916.621,VALID,0,VALID,100,VALID,0.0169808,VALID,20.6731,VALID,32,VALID,0,
2009-06-03, 03:17:00,VALID,916.603,VALID,0,VALID,100,VALID,0,VALID,20.6836,VALID,29,VALID,0.183594,
2009-06-03, 03:18:01,VALID,916.598,VALID,0,VALID,100,VALID,-0.0339617,VALID,20.6871,VALID,357,VALID,0.0801711,
2009-06-03, 03:19:00,VALID,916.578,VALID,0,VALID,100,VALID,-0.0509425,VALID,20.6804,VALID,317,VALID,0.00816761,
2009-06-03, 03:20:00,VALID,916.578,VALID,0,VALID,100,VALID,-0.0169808,VALID,20.6744,VALID,317,VALID,0,
2009-06-03, 03:21:00,VALID,916.562,VALID,0,VALID,100,VALID,-0.0169808,VALID,20.6711,VALID,317,VALID,0,
2009-06-03, 03:22:00,VALID,916.554,VALID,0,VALID,100,VALID,-0.0169808,VALID,20.6644,VALID,318,VALID,0,
2009-06-03, 03:23:00,VALID,916.549,VALID,0,VALID,100,VALID,-0.0169808,VALID,20.6771,VALID,345,VALID,0,
2009-06-03, 03:24:00,VALID,916.57,VALID,0,VALID,100,VALID,-0.0169808,VALID,20.7066,INVALID,360,VALID,0,
2009-06-03, 03:25:00,VALID,916.556,VALID,0,VALID,100,VALID,-0.0339617,VALID,20.7328,INVALID,360,VALID,0,
2009-06-03, 03:26:00,VALID,916.567,VALID,0,VALID,100,VALID,-0.0339617,VALID,20.739,VALID,345,VALID,0,
2009-06-03, 03:27:01,VALID,916.568,VALID,0,VALID,100,VALID,-0.0339617,VALID,20.7523,VALID,345,VALID,0,
2009-06-03, 03:28:00,VALID,916.555,VALID,0,VALID,100,VALID,0,VALID,20.752,INVALID,360,VALID,0,
2009-06-03, 03:29:00,VALID,916.543,VALID,0,VALID,100,VALID,-0.0339617,VALID,20.7653,VALID,30,VALID,0,
2009-06-03, 03:30:01,VALID,916.542,VALID,0,VALID,100,VALID,-0.0169808,VALID,20.775,VALID,41,VALID,0,
2009-06-03, 03:31:00,VALID,916.545,VALID,0,VALID,100,VALID,-0.0169808,VALID,20.7783,VALID,40,VALID,0,
2009-06-03, 03:32:00,VALID,916.575,VALID,0,VALID,100,VALID,0,VALID,20.7553,VALID,42,VALID,0,
2009-06-03, 03:33:01,VALID,916.587,VALID,0,VALID,100,VALID,0,VALID,20.7358,VALID,42,VALID,0,
2009-06-03, 03:34:00,VALID,916.616,VALID,0,VALID,100,VALID,-0.0169808,VALID,20.7458,VALID,27,VALID,0,
2009-06-03, 03:35:00,VALID,916.628,VALID,0,VALID,100,VALID,0,VALID,20.749,VALID,22,VALID,0,
2009-06-03, 03:36:00,VALID,916.635,VALID,0,VALID,100,VALID,-0.0339617,VALID,20.7488,VALID,21,VALID,0,
2009-06-03, 03:37:00,VALID,916.63,VALID,0,VALID,100,VALID,-0.0509425,VALID,20.7653,VALID,21,VALID,0,
2009-06-03, 03:38:01,VALID,916.625,VALID,0,VALID,100,VALID,-0.0339617,VALID,20.7772,VALID,21,VALID,0,
2009-06-03, 03:39:00,VALID,916.602,VALID,0,VALID,100,VALID,-0.0849042,VALID,20.785,VALID,24,VALID,0,
2009-06-03, 03:40:00,VALID,916.589,VALID,0,VALID,100,VALID,-0.118866,VALID,20.8026,VALID,24,VALID,0,
2009-06-03, 03:41:00,VALID,916.583,VALID,0,VALID,100,VALID,-0.118866,VALID,20.802,VALID,24,VALID,0,
2009-06-03, 03:42:00,VALID,916.586,VALID,0,VALID,100,VALID,-0.118866,VALID,20.7863,VALID,24,VALID,0,
2009-06-03, 03:43:01,VALID,916.607,VALID,0,VALID,100,VALID,-0.101885,VALID,20.7701,VALID,24,VALID,0,
2009-06-03, 03:44:00,VALID,916.618,VALID,0,VALID,100,VALID,-0.101885,VALID,20.7701,VALID,24,VALID,0,
2009-06-03, 03:45:00,VALID,916.617,VALID,0,VALID,100,VALID,-0.0849042,VALID,20.7755,VALID,24,VALID,0,
2009-06-03, 03:46:00,VALID,916.614,VALID,0,VALID,100,VALID,-0.118866,VALID,20.809,VALID,24,VALID,0,